This demonstration page uses our WeatherBlox Daily Observations layout. Learn more.

Left ArrowRight Arrow

Hourly Observations for March 26, 2022

Temp ( °F °C ) Dew Point ( °F °C ) Humidity (%) Winds ( mph kmh ) Pressure ( in mb ) Visibility ( mi km ) Precip ( " mm )
12:59 am 00:59 Mostly Cloudy 57 13.9 38 3.3 49 49 WNW 14 22 29.70 1006 10 16 0.00 0.00
1:59 am 01:59 Mostly Cloudy 55 12.8 39 3.9 55 55 W 10 17 29.70 1006 10 16 0.00 0.00
2:59 am 02:59 Cloudy 55 12.8 37 2.8 51 51 W 16 26 29.68 1005 10 16 0.00 0.00
3:59 am 03:59 Mostly Cloudy 53 11.7 36 2.2 52 52 W 14 22 29.67 1005 10 16 0.00 0.00
4:59 am 04:59 Partly Cloudy 51 10.6 37 2.8 59 59 W 10 17 29.65 1004 10 16 0.00 0.00
5:59 am 05:59 Mostly Clear 50 10 36 2.2 59 59 W 8 13 29.65 1004 10 16 0.00 0.00
6:59 am 06:59 Mostly Clear 50 10 36 2.2 59 59 W 13 20 29.66 1004 10 16 0.00 0.00
7:59 am 07:59 Mostly Sunny 50 10 36 2.2 59 59 W 13 20 29.67 1005 10 16 0.00 0.00
8:59 am 08:59 Mostly Sunny 52 11.1 36 2.2 55 55 W 14 22 29.67 1005 10 16 0.00 0.00
9:59 am 09:59 Partly Cloudy 54 12.2 35 1.7 49 49 W 26 43 29.67 1005 10 16 0.00 0.00
10:59 am 10:59 Partly Cloudy 55 12.8 34 1.1 45 45 W 13 20 29.66 1004 10 16 0.00 0.00
11:59 am 11:59 Partly Cloudy 57 13.9 27 -2.8 32 32 W 21 33 29.64 1004 10 16 0.00 0.00
12:59 pm 12:59 Partly Cloudy 57 13.9 23 -5 27 27 W 24 39 29.62 1003 10 16 0.00 0.00
1:59 pm 13:59 Mostly Cloudy 58 14.4 24 -4.4 27 27 W 30 48 29.62 1003 10 16 0.00 0.00
2:59 pm 14:59 Mostly Cloudy 57 13.9 22 -5.6 26 26 W 22 35 29.62 1003 10 16 0.00 0.00
3:59 pm 15:59 Mostly Cloudy 56 13.3 22 -5.6 27 27 W 17 28 29.61 1003 10 16 0.00 0.00
4:59 pm 16:59 Mostly Cloudy 55 12.8 24 -4.4 30 30 W 17 28 29.61 1003 10 16 0.00 0.00
5:59 pm 17:59 Mostly Cloudy 54 12.2 27 -2.8 35 35 WNW 28 44 29.65 1004 10 16 0.00 0.00
6:59 pm 18:59 Mostly Cloudy 52 11.1 26 -3.3 37 37 W 22 35 29.68 1005 10 16 0.00 0.00
7:59 pm 19:59 Partly Cloudy 51 10.6 27 -2.8 39 39 WNW 21 33 29.70 1006 10 16 0.00 0.00
8:59 pm 20:59 Clear 50 10 28 -2.2 43 43 W 17 28 29.74 1007 10 16 0.00 0.00
9:59 pm 21:59 Clear 49 9.4 27 -2.8 43 43 W 22 35 29.76 1008 10 16 0.00 0.00
10:59 pm 22:59 Clear 48 8.9 26 -3.3 42 42 WNW 17 28 29.78 1008 10 16 0.00 0.00
11:59 pm 23:59 Clear 47 8.3 27 -2.8 46 46 NW 17 28 29.78 1009 10 16 0.00 0.00

Powered by AerisWeather